Weather History for KCEY - July, 2013

Change the Weather History Date:

Tuesday, July 30, 2013

  Actual Average (KPAH) Record (KPAH)
Temperature  
Mean Temperature 68 °F 79 °F  
Max Temperature 71 °F 89 °F 102 °F (1941)
Min Temperature 64 °F 68 °F 54 °F (1965)
Degree Days  
Heating Degree Days 0 0  
Month to date heating degree days 0  
Since 1 June heating degree days 4  
Since 1 July heating degree days 0  
Cooling Degree Days 2 14  
Month to date cooling degree days 420  
Year to date cooling degree days 912  
Since 1 June cooling degree days 740  
Growing Degree Days 18 (Base 50)    
Moisture  
Dew Point 67 °F    
Average Humidity 95    
Maximum Humidity 100    
Minimum Humidity 83    
Precipitation  
Precipitation 0.41 in 0.12 in 3.27 in (1998)
Month to date precipitation 4.31  
Year to date precipitation 29.59  
Snow  
Snow 0.00 in 0.00 in 0.00 in (2002)
Month to date snowfall 0.0  
Since 1 June snowfall 0.0  
Since 1 July snowfall 0.0  
Snow Depth -    
Sea Level Pressure  
Sea Level Pressure 30.13 in    
Wind  
Wind Speed 3 mph (SE)    
Max Wind Speed 9 mph    
Max Gust Speed 17 mph    
Visibility 8 miles    
Events      
T = Trace of Precipitation, MM = Missing Value Source: NWS Daily Summary

Daily Weather History Graph

Daily Weather History Graph

Search for Another Location

Airport or City:

Trip Planner

Search our weather history database for the weather conditions in past years. The results will help you decide how hot, cold, wet, or windy it might be!

Date:

Astronomy

Jul. 30, 2013 Rise Set
Actual Time 5:58 AM CDT 8:01 PM CDT
Civil Twilight 5:29 AM CDT 8:29 PM CDT
Nautical Twilight 4:54 AM CDT 9:04 PM CDT
Astronomical Twilight 4:16 AM CDT 9:42 PM CDT
Moon 12:14 AM CDT (7/30) 2:21 PM CDT (7/30)
Length of Visible Light 15h 00m
Length of Day
14h 03m
Last Quarter, 41% of the Moon is Illuminated
Jul 30
Last Quarter
Aug 6
New
Aug 14
First Quarter
Aug 20
Full
Aug 28
Last Quarter

Hourly Weather History & Observations

Time (CDT) Temp. Dew Point Humidity Pressure Visibility Wind Dir Wind Speed Gust Speed Precip Events Conditions
12:15 AM 64.4 °F 64.4 °F 100% 30.17 in 10.0 mi SSE 3.5 mph - N/A   Partly Cloudy
12:35 AM 64.4 °F 64.4 °F 100% 30.17 in 10.0 mi Calm Calm - N/A   Partly Cloudy
12:55 AM 64.4 °F 62.6 °F 94% 30.17 in 10.0 mi Calm Calm - N/A   Clear
1:15 AM 64.4 °F 64.4 °F 100% 30.17 in 10.0 mi ESE 3.5 mph - N/A   Clear
1:35 AM 66.2 °F 64.4 °F 94% 30.18 in 10.0 mi Calm Calm - N/A   Clear
1:55 AM 66.2 °F 62.6 °F 88% 30.17 in 10.0 mi Calm Calm - N/A   Mostly Cloudy
2:15 AM 66.2 °F 62.6 °F 88% 30.16 in 10.0 mi SE 3.5 mph - N/A   Partly Cloudy
2:35 AM 66.2 °F 62.6 °F 88% 30.16 in 10.0 mi SE 3.5 mph - N/A   Clear
2:55 AM 66.2 °F 62.6 °F 88% 30.15 in 10.0 mi Calm Calm - N/A   Clear
3:15 AM 66.2 °F 60.8 °F 83% 30.16 in 10.0 mi Calm Calm - N/A   Clear
3:35 AM 66.2 °F 60.8 °F 83% 30.16 in 10.0 mi Calm Calm - N/A   Scattered Clouds
3:55 AM 66.2 °F 60.8 °F 83% 30.16 in 10.0 mi SSE 3.5 mph - N/A   Overcast
4:15 AM 66.2 °F 60.8 °F 83% 30.16 in 10.0 mi SE 3.5 mph - N/A   Scattered Clouds
4:35 AM 66.2 °F 60.8 °F 83% 30.16 in 10.0 mi Calm Calm - N/A   Mostly Cloudy
4:55 AM 66.2 °F 62.6 °F 88% 30.16 in 10.0 mi Calm Calm - N/A   Mostly Cloudy
5:15 AM 64.4 °F 62.6 °F 94% 30.15 in 10.0 mi SE 4.6 mph - N/A   Scattered Clouds
5:35 AM 64.4 °F 62.6 °F 94% 30.15 in 10.0 mi SE 3.5 mph - N/A   Clear
5:55 AM 64.4 °F 62.6 °F 94% 30.16 in 10.0 mi Calm Calm - N/A   Scattered Clouds
6:15 AM 66.2 °F 62.6 °F 88% 30.16 in 10.0 mi SE 4.6 mph - N/A   Mostly Cloudy
6:35 AM 66.2 °F 62.6 °F 88% 30.16 in 10.0 mi SE 4.6 mph - N/A   Overcast
6:55 AM 66.2 °F 62.6 °F 88% 30.16 in 10.0 mi South 3.5 mph - N/A   Overcast
7:15 AM 66.2 °F 62.6 °F 88% 30.16 in 10.0 mi South 3.5 mph - N/A   Mostly Cloudy
7:35 AM 68.0 °F 64.4 °F 88% 30.18 in 10.0 mi North 8.1 mph - N/A   Overcast
7:55 AM 66.2 °F 62.6 °F 88% 30.18 in 5.0 mi NE 4.6 mph - 0.01 in   Overcast
8:15 AM 66.2 °F 64.4 °F 94% 30.18 in 10.0 mi NE 4.6 mph - N/A   Overcast
8:35 AM 66.2 °F 64.4 °F 94% 30.18 in 7.0 mi SE 3.5 mph - 0.01 in   Overcast
8:55 AM 66.2 °F 64.4 °F 94% 30.17 in 8.0 mi Calm Calm - 0.04 in   Mostly Cloudy
9:15 AM 68.0 °F 64.4 °F 88% 30.17 in 10.0 mi ESE 4.6 mph - N/A   Mostly Cloudy
9:35 AM 68.0 °F 64.4 °F 88% 30.16 in 10.0 mi SSE 4.6 mph - N/A   Mostly Cloudy
9:55 AM 66.2 °F 64.4 °F 94% 30.16 in 6.0 mi SSE 4.6 mph - N/A   Partly Cloudy
10:15 AM 66.2 °F 64.4 °F 94% 30.16 in 5.0 mi SSE 3.5 mph - N/A   Partly Cloudy
10:35 AM 68.0 °F 66.2 °F 94% 30.15 in 5.0 mi ESE 5.8 mph - 0.01 in   Clear
10:55 AM 68.0 °F 66.2 °F 94% 30.15 in 8.0 mi SE 6.9 mph - 0.02 in   Clear
11:15 AM 68.0 °F 66.2 °F 94% 30.15 in 6.0 mi SE 4.6 mph - N/A   Mostly Cloudy
11:55 AM 68.0 °F 66.2 °F 94% 30.17 in 10.0 mi South 4.6 mph - 0.01 in   Mostly Cloudy
12:15 PM 68.0 °F 66.2 °F 94% 30.17 in 5.0 mi South 4.6 mph - 0.01 in   Overcast
12:35 PM 68.0 °F 66.2 °F 94% 30.17 in 5.0 mi South 4.6 mph - 0.03 in   Overcast
1:15 PM 69.8 °F 68.0 °F 94% 30.16 in 8.0 mi South 4.6 mph - N/A   Scattered Clouds
1:35 PM 69.8 °F 68.0 °F 94% 30.15 in 5.0 mi SSW 5.8 mph - N/A   Mostly Cloudy
1:55 PM 69.8 °F 69.8 °F 100% 30.15 in 1.8 mi South 6.9 mph - 0.08 in   Overcast
2:15 PM 69.8 °F 69.8 °F 100% 30.14 in 1.5 mi South 8.1 mph - 0.08 in   Overcast
2:35 PM 69.8 °F 69.8 °F 100% 30.12 in 4.0 mi SSE 4.6 mph - 0.12 in   Mostly Cloudy
2:55 PM 71.6 °F 71.6 °F 100% 30.11 in 4.0 mi SE 6.9 mph - 0.13 in   Mostly Cloudy
3:15 PM 71.6 °F 71.6 °F 100% 30.09 in 7.0 mi SE 5.8 mph - 0.01 in   Scattered Clouds
3:35 PM 71.6 °F 71.6 °F 100% 30.09 in 8.0 mi SSE 4.6 mph - 0.01 in   Scattered Clouds
3:55 PM 71.6 °F 71.6 °F 100% 30.11 in 2.5 mi South 9.2 mph - 0.03 in   Mostly Cloudy
4:15 PM 71.6 °F 71.6 °F 100% 30.09 in 4.0 mi SE 6.9 mph - 0.01 in   Scattered Clouds
4:35 PM 71.6 °F 71.6 °F 100% 30.08 in 9.0 mi SSE 5.8 mph - 0.02 in   Partly Cloudy
4:55 PM 71.6 °F 71.6 °F 100% 30.10 in 10.0 mi SW 4.6 mph - 0.02 in   Partly Cloudy
5:15 PM 71.6 °F 71.6 °F 100% 30.11 in 3.0 mi SW 5.8 mph - 0.01 in   Mostly Cloudy
5:35 PM 71.6 °F 69.8 °F 94% 30.10 in 4.0 mi SSE 3.5 mph - 0.03 in   Mostly Cloudy
5:55 PM 69.8 °F 69.8 °F 100% 30.07 in 4.0 mi SE 8.1 mph 17.3 mph 0.03 in   Mostly Cloudy
6:15 PM 69.8 °F 68.0 °F 94% 30.07 in 10.0 mi SE 5.8 mph - N/A   Overcast
6:35 PM 69.8 °F 68.0 °F 94% 30.06 in 10.0 mi SE 5.8 mph - N/A   Overcast
6:55 PM 69.8 °F 68.0 °F 94% 30.06 in 10.0 mi ESE 4.6 mph - N/A   Overcast
7:15 PM 69.8 °F 69.8 °F 100% 30.07 in 10.0 mi ESE 3.5 mph - N/A   Overcast
7:35 PM 69.8 °F 69.8 °F 100% 30.07 in 9.0 mi SE 4.6 mph - N/A   Overcast
7:55 PM 69.8 °F 69.8 °F 100% 30.06 in 10.0 mi SE 6.9 mph - N/A   Overcast
8:15 PM 69.8 °F 69.8 °F 100% 30.06 in 10.0 mi SE 5.8 mph - N/A   Overcast
8:35 PM 69.8 °F 69.8 °F 100% 30.07 in 10.0 mi SSW 3.5 mph - N/A   Overcast
8:55 PM 69.8 °F 69.8 °F 100% 30.08 in 9.0 mi Calm Calm - N/A   Overcast
9:15 PM 69.8 °F 69.8 °F 100% 30.08 in 7.0 mi Calm Calm - N/A   Overcast
9:35 PM 69.8 °F 69.8 °F 100% 30.08 in 4.0 mi ESE 4.6 mph - 0.01 in   Overcast
9:55 PM 69.8 °F 69.8 °F 100% 30.07 in 7.0 mi ESE 5.8 mph - 0.01 in   Unknown
10:15 PM 71.6 °F 71.6 °F 100% 30.07 in 8.0 mi SE 3.5 mph - N/A   Overcast
10:35 PM 71.6 °F 71.6 °F 100% 30.08 in 7.0 mi East 5.8 mph - N/A   Overcast
10:55 PM 71.6 °F 69.8 °F 94% 30.07 in 5.0 mi Calm Calm - N/A   Overcast
11:15 PM 71.6 °F 71.6 °F 100% 30.07 in 7.0 mi ESE 5.8 mph - N/A   Overcast
11:35 PM 71.6 °F 71.6 °F 100% 30.06 in 7.0 mi ESE 5.8 mph - N/A   Overcast
11:55 PM 71.6 °F 71.6 °F 100% 30.06 in 5.0 mi SE 4.6 mph - N/A   Overcast